THOR AGENA B DEB, 511

Orbit data source: Space-Track

THOR AGENA B DEB, 511 is space debris in LEO originally from a launch on Sat, 29 Sep 1962 UTC launched from the Air Force Western Test Range (AFWTR). Debris objects in space refer to the collection of defunct objects orbiting the Earth. Examples of debris include non-operational satellites, rocket bodies, and fragments generated from explosions, collisions, or faulty payload assembly.

Loading next visibility...
Identifier
511, 1962-049D
Orbit
LEO
Country
Flag of USUS
Related business
Manufacturer
Unknown
Mission
Spacecraft
Bus & Motor
Unknown
Mass
Unknown
Launch date (UTC)
1962-09-29 (64 years ago)
Launch vehicle
Unknown
Launch site
Air Force Western Test Range (AFWTR)
Object type
Payload
Rocket body
Debris
Shape & HBR
Unknown shape, 0.1 m
Radar Cross Section
Small (<0.1 m²)

Expand to show TLE details & history
Last TLE update: 7 hours ago

TLE from 7 hours ago
0 THOR AGENA B DEB
1   511U 62049D   26122.08324890  .00000063  00000-0  62500-4 0  9991
2   511  80.4283 237.6119 0032378  95.9090  78.0029 13.68561578173274
Epoch: 2026-05-02T01:59Z
TLE epoch observation values (Epoch: 2026-05-02T01:59:52.704Z)
Latitude
5.56557°
Longitude
166.69941°
Altitude
1,002.11 km
Speed
7.353 km/s
True Right ascension
03h 46m 42s
True Declination
5° 32' 01"
Sunlit
Object was in daylight at epoch
Visualization orbit readout
Latitude
Unknown
Longitude
Unknown
Altitude
Unknown
Speed
Unknown
Apparent Right ascension
Unknown
Apparent Declination
Unknown
Sunlit
N/A
Visualization observer readout
Local Sidereal Time
16:58:22
Azimuth
Unknown
Elevation
Unknown
Doppler factor
Unknown
Orbital elements
Apogee altitude
1,025.905 km
Perigee altitude
978.114 km
Semi-major axis
7,380.147 km
Eccentricity
0.00324
Inclination
80.4283°
RAAN
237.6119°
Arg. of periapsis
95.909°
True anomaly
78.36612°
Mean anomaly
78.0029°
Eccentric anomaly
78.18448°
Mean motion
3.42331 °/min
Orbital period
105.16 mins
BSTAR
0.0000625
Loading maneuver chart data...
Computing Atmospheric mass density...
Loading historical data...
Loading historical data...
Loading historical data...
Loading historical data...
Loading historical data...
Loading historical data...
Loading historical data...
Other satellites on launch #49 in the year 1962 (1962-09-29 UTC)

Documentation

Showing up to 5 results
|